User: anonymous   Login
Location: Copper Breaks State Park
(34.1132°N, 99.7492°W)
Time: 08:12:50
(UTC-05:00)
Language:

SL-16 R/B - Orbit

View from above orbital plane
View from above orbital plane
View from above satellite
View from above satellite

Ground track
Ground track

The orbit data is extracted from the following two-line orbital elements,

1 27006U 01056F   15142.48912887 -.00000006  00000-0  40819-4 0  9990
2 27006 099.2041 300.3811 0015462 123.0718 268.2140 13.70955662672819
Epoch (UTC): 22 May 2015 11:44:20
Eccentricity: 0.0015462
inclination: 99.2041°
perigee height: 985 km
apogee height: 1007 km
right ascension of ascending node: 300.3811°
argument of perigee: 123.0718°
revolutions per day: 13.70955662
mean anomaly at epoch: 268.2140°
orbit number at epoch: 67281

The dashed part of the orbit path shows where the satellite is in the earth's shadow,  

DLR